TimeCST,TemperatureF,Dew PointF,Humidity,Sea Level PressureIn,VisibilityMPH,Wind Direction,Wind SpeedMPH,Gust SpeedMPH,PrecipitationIn,Events,Conditions,WindDirDegrees,DateUTC
12:53 AM,69.1,64.0,84,30.04,10.0,Calm,Calm,-,N/A,,Clear,0,2012-11-04 05:53:00
1:53 AM,69.1,64.0,84,30.02,10.0,East,4.6,-,N/A,,Partly Cloudy,100,2012-11-04 06:53:00
1:53 AM,69.1,64.9,87,30.01,10.0,ESE,4.6,-,N/A,,Clear,120,2012-11-04 07:53:00
2:02 AM,69.8,64.4,83,30.01,10.0,East,9.2,119.7,N/A,,Squalls,100,2012-11-04 08:02:00
2:12 AM,69.8,66.2,88,30.01,10.0,North,-9999.0,-,N/A,,Scattered Clouds,0,2012-11-04 08:12:00
2:53 AM,66.0,63.0,90,30.02,10.0,NW,8.1,-,N/A,,Clear,310,2012-11-04 08:53:00
3:53 AM,64.0,61.0,90,30.03,10.0,NNW,6.9,-,N/A,,Clear,330,2012-11-04 09:53:00
4:38 AM,64.4,60.8,88,30.04,10.0,NW,5.8,-,N/A,,Scattered Clouds,320,2012-11-04 10:38:00
4:53 AM,64.0,61.0,90,30.04,10.0,NNW,5.8,-,N/A,,Mostly Cloudy,340,2012-11-04 10:53:00
5:00 AM,64.4,62.6,94,30.05,10.0,NNW,4.6,-,N/A,,Scattered Clouds,340,2012-11-04 11:00:00
5:53 AM,64.0,61.0,90,30.06,10.0,North,4.6,-,N/A,,Clear,10,2012-11-04 11:53:00
6:41 AM,64.4,60.8,88,30.07,10.0,NNE,3.5,-,N/A,,Mostly Cloudy,20,2012-11-04 12:41:00
6:53 AM,64.0,61.0,90,30.07,10.0,North,5.8,-,N/A,,Mostly Cloudy,10,2012-11-04 12:53:00
7:05 AM,64.4,62.6,94,30.07,10.0,North,4.6,-,N/A,,Scattered Clouds,10,2012-11-04 13:05:00
7:53 AM,69.1,64.9,87,30.08,10.0,NW,5.8,-,N/A,,Partly Cloudy,320,2012-11-04 13:53:00
8:32 AM,69.8,66.2,88,30.08,10.0,NE,6.9,-,N/A,,Mostly Cloudy,40,2012-11-04 14:32:00
8:43 AM,69.8,66.2,88,30.09,10.0,NNE,4.6,-,N/A,,Scattered Clouds,30,2012-11-04 14:43:00
8:53 AM,71.1,66.9,87,30.09,10.0,NNE,8.1,-,N/A,,Partly Cloudy,20,2012-11-04 14:53:00
9:14 AM,71.6,68.0,88,30.09,8.0,NNE,4.6,-,N/A,,Mostly Cloudy,30,2012-11-04 15:14:00
9:53 AM,73.0,68.0,84,30.10,10.0,Calm,Calm,-,N/A,,Overcast,0,2012-11-04 15:53:00
10:43 AM,78.8,68.0,69,30.09,10.0,NNW,6.9,-,N/A,,Scattered Clouds,340,2012-11-04 16:43:00
10:53 AM,79.0,68.0,69,30.09,10.0,NNE,4.6,-,N/A,,Partly Cloudy,20,2012-11-04 16:53:00
11:53 AM,82.9,64.9,54,30.06,10.0,North,6.9,-,N/A,,Clear,360,2012-11-04 17:53:00
12:53 PM,84.9,63.0,48,30.05,10.0,North,9.2,-,N/A,,Clear,360,2012-11-04 18:53:00
1:53 PM,86.0,61.0,43,30.02,10.0,NW,6.9,-,N/A,,Clear,320,2012-11-04 19:53:00
2:53 PM,87.1,59.0,39,30.01,10.0,NNW,8.1,-,N/A,,Clear,330,2012-11-04 20:53:00
3:53 PM,86.0,61.0,43,30.01,10.0,ENE,13.8,21.9,N/A,,Clear,60,2012-11-04 21:53:00
4:13 PM,80.6,64.4,58,30.01,10.0,East,13.8,-,N/A,,Clear,100,2012-11-04 22:13:00
4:53 PM,79.0,64.0,60,30.02,10.0,ESE,11.5,-,N/A,,Clear,120,2012-11-04 22:53:00
5:53 PM,73.9,66.0,76,30.04,10.0,East,6.9,-,N/A,,Clear,90,2012-11-04 23:53:00
6:53 PM,71.1,66.0,84,30.06,10.0,SE,6.9,-,N/A,,Clear,130,2012-11-05 00:53:00
7:33 PM,73.4,66.2,78,30.07,10.0,North,-9999.0,-,N/A,,Clear,0,2012-11-05 01:33:00
7:42 PM,71.6,66.2,83,30.07,10.0,ESE,4.6,-,N/A,,Clear,110,2012-11-05 01:42:00
7:53 PM,73.0,68.0,84,30.07,10.0,SSE,4.6,-,N/A,,Clear,160,2012-11-05 01:53:00
8:53 PM,72.0,69.1,91,30.07,10.0,SSE,5.8,-,N/A,,Clear,150,2012-11-05 02:53:00
9:53 PM,72.0,68.0,87,30.08,10.0,SW,15.0,20.7,N/A,,Clear,230,2012-11-05 03:53:00
10:53 PM,73.0,70.0,90,30.07,10.0,South,4.6,-,N/A,,Clear,190,2012-11-05 04:53:00